Location: Alino
(45.8500°N, 9.6333°E)
Time: 03:18:48
(UTC+00:00)

Daily predictions for brighter satellites

Satellite Brightness Start Highest point End
(mag) Time Altitude Azimuth Time Altitude Azimuth Time Altitude Azimuth
CENTAUR R/B 4.0 02:03:00 33° ENE 02:03:00 33° ENE 02:07:18 10° NE
CZ-2C R/B 4.5 02:25:20 10° NE 02:29:16 23° E 02:29:29 23° E
Cosmos 1697 Rocket 4.2 02:35:00 29° NNE 02:36:28 33° NE 02:41:32 10° ESE
Cosmos 2344 3.5 02:37:40 78° NNE 02:37:40 78° NNE 02:45:06 10° NE
Lacrosse 4 Rocket 4.2 02:42:02 15° NE 02:42:02 15° NE 02:42:50 10° NE
USA 238 DEB 4.0 02:41:03 58° NNE 02:41:03 58° NNE 02:46:31 10° NE
COSMOS 2406 4.4 02:39:30 37° ESE 02:39:37 37° ESE 02:44:47 10° NE
USA 238 4.0 02:41:08 58° NNE 02:41:08 58° NNE 02:46:38 10° NE
NOSS 3-2 (A) 4.2 02:44:26 46° NNE 02:44:26 46° NNE 02:49:07 10° NE
Lacrosse 5 rocket 4.1 02:50:06 14° ENE 02:50:06 14° ENE 02:50:51 10° ENE
ATLAS 3B R/B 4.2 02:45:39 18° SSE 02:49:19 29° ESE 02:54:51 10° NE
Cosmos 1980 Rocket 4.0 02:54:35 11° N 02:59:07 28° NE 03:03:52 10° ESE
USA 234 3.7 02:53:20 10° NE 02:59:22 47° NNW 02:59:22 47° NNW
ADEOS Rocket 3.1 02:55:56 10° SSE 03:01:18 60° ENE 03:06:50 10° N
Cosmos 1269 Rocket 4.4 03:09:19 60° NE 03:09:19 60° NE 03:13:41 10° NNE
IDEFIX/ARIANE 42P 4.3 03:17:09 10° N 03:18:52 20° N 03:18:52 20° N
MSX 4.3 03:27:41 10° N 03:32:03 43° NNW 03:32:03 43° NNW
Cosmos 1300 4.4 03:30:59 10° N 03:34:28 32° ENE 03:37:56 10° SE
In-Cosmos 22 4.4 03:35:42 48° NNW 03:35:42 48° NNW 03:40:00 10° N
ALOS 3.6 03:30:46 10° NNE 03:35:10 40° E 03:39:33 10° SSE
CZ-4B R/B 2.9 03:32:35 10° SE 03:35:48 37° ENE 03:37:08 26° NNE
Cosmos 1833 Rocket 2.7 03:33:51 39° SSW 03:36:02 79° ESE 03:41:43 10° NNE
Cosmos 1992 Rocket 4.5 03:34:09 10° NNW 03:39:20 60° ENE 03:44:28 10° SE
SL-14 R/B 4.4 03:35:53 10° SSE 03:39:41 45° E 03:43:33 10° NNE
Cosmos 1626 2.7 03:39:55 50° SE 03:40:22 54° E 03:44:00 10° NNE
NOSS 3-2 (C) 3.6 03:43:22 47° WNW 03:44:03 49° NW 03:50:30 10° NNE
deb Kosmos-1763 4.4 03:46:47 62° ESE 03:46:47 62° ESE 03:50:21 10° NNE
CENTAUR R/B 2.8 03:50:12 42° WNW 03:51:33 48° NW 03:58:33 10° NE
Cosmos 2369 3.6 03:49:30 19° NNW 03:53:45 83° WSW 03:59:24 10° SSE
Cosmos 1656 4.3 03:55:16 36° SW 03:55:16 36° SW 03:59:27 10° S
Meteor 1-24 Rocket 4.2 03:50:12 10° S 03:55:43 62° E 04:01:30 10° NNE
Cosmos 1484 Rocket 3.1 03:53:52 10° NNE 03:57:42 63° E 04:01:28 10° S
CBERS 1 LM4 rocket 4.2 03:53:28 10° NNE 03:58:24 77° WNW 04:02:24 15° SSW
Cosmos 2082 Rocket 2.4 03:53:23 10° SSW 03:58:56 69° ESE 04:04:33 10° NNE
Cosmos 1461 3.0 03:57:49 40° SSW 03:59:29 88° SE 04:04:14 10° NE
Cosmos 1892 Rocket 4.4 03:57:04 10° SSE 04:01:16 50° E 04:05:31 10° NNE
PSLV R/B 4.0 04:02:01 10° N 04:05:31 40° NW 04:05:31 40° NW
SL-16 R/B 4.0 04:02:18 10° N 04:07:13 29° NE 04:12:06 10° ESE
CZ-2C R/B 2.6 04:02:59 10° N 04:07:43 45° WNW 04:08:51 38° WSW
USA 290 2.4 04:06:41 39° S 04:07:43 70° ESE 04:10:57 10° NNE
CREW DRAGON DEMO-1 DEB 3.8 04:08:42 37° N 04:08:53 37° NNE 04:11:43 10° E
ISS -3.9 04:09:06 69° NW 04:09:11 70° NNW 04:12:33 10° ENE
Cosmos 2251 Rocket 3.6 04:04:49 10° SSW 04:10:10 79° ESE 04:15:32 10° NNE
SKYMED 2 4.1 04:12:55 10° SSE 04:17:12 60° ENE 04:21:29 10° N
Lacrosse 4 Rocket 2.7 04:18:22 23° NW 04:18:22 23° NW 04:21:10 10° N
Cosmos 1697 Rocket 3.0 04:16:50 19° NW 04:20:34 45° WSW 04:25:55 10° S
Meteor 1-31 Rocket 2.7 04:18:30 10° NNE 04:22:28 89° E 04:26:24 10° SSW
COSMOS 2406 3.7 04:21:37 27° W 04:23:54 38° NW 04:29:11 10° NNE
[s.n.46727] 2.4 04:25:26 64° WSW 04:25:46 82° NW 04:28:32 10° ENE
[s.n.46723] 2.4 04:25:27 61° WSW 04:25:51 82° NW 04:28:40 10° ENE
[s.n.46707] 2.4 04:25:36 63° WSW 04:25:57 82° NNW 04:28:43 10° ENE
[s.n.46708] 2.4 04:25:41 63° WSW 04:26:03 82° NNW 04:28:48 10° ENE
[s.n.46719] 2.4 04:25:47 63° WSW 04:26:08 81° NNW 04:28:54 10° ENE
[s.n.46724] 2.4 04:25:52 63° WSW 04:26:13 81° NNW 04:28:59 10° ENE
[s.n.46687] 2.4 04:25:57 62° WSW 04:26:19 81° NNW 04:29:04 10° ENE
[s.n.46696] 2.4 04:26:02 62° WSW 04:26:25 81° NNW 04:29:09 10° ENE
[s.n.46720] 2.4 04:26:08 62° WSW 04:26:30 81° NNW 04:29:15 10° ENE
[s.n.46676] 2.4 04:26:12 62° WSW 04:26:35 81° NNW 04:29:20 10° ENE
Lacrosse 5 rocket 1.6 04:25:46 35° WNW 04:26:38 42° NNW 04:30:16 10° NE
[s.n.46721] 2.4 04:26:18 61° WSW 04:26:40 81° NW 04:29:26 10° ENE
[s.n.46728] 2.4 04:26:23 61° WSW 04:26:46 80° NNW 04:29:31 10° ENE
[s.n.46690] 2.4 04:26:28 61° WSW 04:26:52 80° NNW 04:29:37 10° ENE
[s.n.46694] 2.4 04:26:32 61° WSW 04:26:55 80° NNW 04:29:40 10° ENE
[s.n.46702] 2.4 04:26:39 60° WSW 04:27:02 80° NNW 04:29:48 10° ENE
[s.n.46679] 2.4 04:26:42 60° WSW 04:27:06 80° NNW 04:29:52 10° ENE
[s.n.46704] 2.4 04:26:44 58° WSW 04:27:11 80° NNW 04:29:59 10° ENE
CZ-4B R/B 3.6 04:23:11 10° NNE 04:27:11 57° E 04:31:22 10° S
[s.n.46712] 2.4 04:26:50 60° WSW 04:27:15 80° NNW 04:30:00 10° ENE
Meteor 2-5 Rocket 3.8 04:21:39 10° SSW 04:27:16 59° WNW 04:33:02 10° N
[s.n.46711] 2.4 04:26:59 59° WSW 04:27:23 79° NNW 04:30:08 10° ENE
[s.n.46684] 2.4 04:27:01 59° WSW 04:27:26 79° NNW 04:30:11 10° ENE
[s.n.46706] 2.4 04:27:09 59° WSW 04:27:33 79° NW 04:30:20 10° ENE
[s.n.46678] 2.4 04:27:07 57° WSW 04:27:36 79° NNW 04:30:24 10° ENE
[s.n.46677] 2.4 04:27:17 59° WSW 04:27:42 79° NNW 04:30:27 10° ENE
[s.n.46671] 2.4 04:27:22 58° WSW 04:27:48 79° NNW 04:30:33 10° ENE
[s.n.46675] 2.4 04:27:27 58° WSW 04:27:53 79° NNW 04:30:38 10° ENE
[s.n.46674] 2.4 04:27:33 58° WSW 04:27:59 78° NNW 04:30:44 10° ENE
[s.n.46698] 2.4 04:27:38 58° WSW 04:28:05 78° NNW 04:30:50 10° ENE
[s.n.46699] 2.4 04:27:39 56° WSW 04:28:08 78° NNW 04:30:56 10° ENE
[s.n.46715] 2.4 04:27:48 57° W 04:28:15 78° NNW 04:31:01 10° ENE
[s.n.46714] 2.4 04:27:53 57° W 04:28:21 78° NNW 04:31:06 10° ENE
[s.n.46726] 2.4 04:27:59 57° W 04:28:25 78° NNW 04:31:11 10° ENE
[s.n.46703] 2.4 04:28:04 56° W 04:28:31 77° NNW 04:31:16 10° ENE
[s.n.46713] 2.4 04:28:09 56° W 04:28:37 77° NNW 04:31:23 10° ENE
[s.n.46717] 2.4 04:28:14 56° W 04:28:42 77° NNW 04:31:28 10° ENE
[s.n.46691] 2.4 04:28:16 54° WSW 04:28:47 77° NNW 04:31:34 10° ENE
[s.n.46693] 2.4 04:28:25 56° W 04:28:54 77° NNW 04:31:39 10° ENE
[s.n.46672] 2.4 04:28:30 55° W 04:28:58 77° NNW 04:31:44 10° ENE
[s.n.46701] 2.4 04:28:35 55° W 04:29:04 77° NNW 04:31:49 10° ENE
[s.n.46685] 2.4 04:28:41 55° W 04:29:09 76° NNW 04:31:55 10° ENE
[s.n.46709] 2.4 04:28:46 55° W 04:29:15 76° NNW 04:32:01 10° ENE
[s.n.46683] 2.4 04:28:50 54° W 04:29:19 76° NNW 04:32:05 10° ENE
[s.n.46695] 2.4 04:28:55 54° W 04:29:25 76° NNW 04:32:10 10° ENE
[s.n.46688] 2.4 04:29:01 54° W 04:29:31 76° NNW 04:32:17 10° ENE
[s.n.46729] 2.4 04:29:06 54° W 04:29:36 76° NNW 04:32:22 10° ENE
[s.n.46697] 2.4 04:29:09 54° W 04:29:39 76° NNW 04:32:25 10° NE
[s.n.46725] 2.4 04:29:14 54° W 04:29:44 76° NNW 04:32:30 10° NE
[s.n.46682] 2.4 04:29:19 53° W 04:29:50 75° NNW 04:32:35 10° NE
FENGYUN 3A 3.6 04:24:25 10° N 04:29:50 67° WNW 04:35:12 10° SSW
[s.n.46680] 2.4 04:29:25 53° W 04:29:55 75° NNW 04:32:41 10° NE
[s.n.46718] 2.4 04:29:30 53° W 04:30:01 75° NNW 04:32:46 10° NE
[s.n.46710] 2.4 04:29:35 52° W 04:30:06 75° NNW 04:32:52 10° NE
[s.n.46673] 2.4 04:29:45 52° W 04:30:17 75° NNW 04:33:03 10° NE
[s.n.46700] 2.4 04:29:51 52° W 04:30:23 74° NNW 04:33:08 10° NE
[s.n.46705] 2.4 04:29:56 52° W 04:30:28 74° NNW 04:33:14 10° NE
[s.n.46692] 2.4 04:30:02 52° W 04:30:34 74° NNW 04:33:20 10° NE
[s.n.46686] 2.4 04:30:07 51° W 04:30:40 74° NNW 04:33:25 10° NE
[s.n.46716] 2.4 04:30:12 51° W 04:30:45 74° NNW 04:33:31 10° NE
[s.n.46722] 2.4 04:30:17 51° W 04:30:50 74° NNW 04:33:36 10° NE
[s.n.46689] 2.4 04:30:23 51° W 04:30:56 74° NNW 04:33:42 10° NE
[s.n.46681] 2.4 04:30:28 51° W 04:31:02 73° NNW 04:33:47 10° NE
Cosmos 2360 Rocket 4.4 04:27:08 10° N 04:31:27 22° NE 04:35:44 10° E
SAR-Lupe-4 3.6 04:33:37 10° S 04:37:06 52° W 04:40:37 10° NNW
ERS-2 3.1 04:36:00 10° SSW 04:39:03 25° W 04:39:17 25° W
ATLAS 3B R/B 2.6 04:33:00 10° SW 04:39:31 64° NW 04:46:10 10° NE
Cosmos 1726 Rocket 3.8 04:35:45 10° NNW 04:40:02 47° W 04:44:19 10° SSW
USA 234 4.3 04:35:59 10° ENE 04:41:42 33° N 04:46:42 13° WNW
Cosmos 1980 Rocket 2.3 04:37:58 10° NW 04:43:26 54° WSW 04:48:51 10° S
Abrixas rocket 2.3 04:43:59 28° W 04:45:05 45° SSW 04:47:48 10° SE
Cosmos 2228 3.7 04:41:14 10° NNW 04:45:05 31° W 04:48:56 10° SSW
ATLAS CENTAUR R/B 3.6 04:42:00 10° S 04:45:15 25° ESE 04:48:26 10° ENE
Cosmos 1092 Rocket 4.1 04:40:30 10° SSW 04:46:32 55° WNW 04:52:40 10° N
ADEOS Rocket 3.9 04:43:30 10° SW 04:47:23 19° W 04:51:21 10° NW
ADEOS 3.9 04:45:52 10° N 04:50:46 42° WNW 04:55:40 10° SW
Cosmos 407 Rocket 4.0 04:47:19 10° S 04:52:21 62° ESE 04:57:27 10° NNE
Aureole 3 3.9 04:49:33 10° NNW 04:53:40 53° W 04:58:52 10° S
CZ-3 R/B 4.0 04:36:36 10° WSW 04:54:58 31° SSW 05:01:32 10° SE
Cosmos 1140 Rocket 4.4 04:50:08 10° S 04:55:06 53° ESE 05:00:05 10° NNE
Cosmos 1400 Rocket 3.4 04:52:57 10° NNW 04:56:31 33° W 05:00:02 10° SSW
CZ-4B R/B 4.4 04:52:36 10° N 04:56:32 39° WNW 05:00:17 10° SW
NOSS 8 (A) 4.1 04:55:32 10° SW 04:58:48 65° NW 05:01:45 10° NNE
GRACE-FO 1 4.5 04:57:54 10° S 05:01:34 79° W 05:05:13 10° N
GRACE-FO 2 4.5 04:58:17 10° S 05:01:57 78° W 05:05:36 10° N
TELKOM 3 4.2 05:01:47 15° W 05:04:25 56° NNW 05:08:27 10° ENE
COSMO-SKYMED 1 2.9 05:01:10 10° S 05:05:17 43° W 05:09:27 10° NNW
CZ-4B R/B 3.2 05:06:13 10° SW 05:08:12 15° W 05:10:11 10° WNW
S3M 4.2 05:02:11 10° N 05:08:31 82° E 05:14:54 10° S
Cosmos 2292 Rocket 3.5 05:06:26 10° S 05:09:33 62° E 05:13:18 10° NNE
Cosmos 1300 4.1 05:07:11 10° NW 05:09:52 19° W 05:12:33 10° SW
ARGOS Delta rocket 4.5 05:04:52 10° N 05:09:58 44° WNW 05:15:07 10° SW
Cosmos 1655 Rocket 4.3 05:04:05 10° S 05:10:20 75° E 05:16:41 10° NNE
ALOS 3.3 05:08:35 10° N 05:12:23 25° WNW 05:16:11 10° WSW
Cosmos 2278 4.5 05:08:49 10° NW 05:13:40 30° WSW 05:18:31 10° SSW
Cosmos 1689 Rocket 3.2 05:12:21 10° SSW 05:14:45 23° W 05:17:10 10° NW
Meteor 2-10 Rocket 3.5 05:09:55 10° NNW 05:14:52 61° W 05:19:53 10° S
Cosmos 2322 Rocket 2.6 05:09:52 10° NNW 05:15:34 69° ENE 05:21:11 10° SE
Cosmos 1626 4.0 05:14:37 10° W 05:15:58 12° WNW 05:17:20 10° NW
MOS 1 Rocket 3.2 05:16:12 10° SSE 05:20:29 80° ENE 05:24:48 10° N
Cosmos 1833 Rocket 4.0 05:16:26 10° W 05:20:38 21° NW 05:24:52 10° N
NOAA 6 4.5 05:16:04 10° NNE 05:21:14 71° ESE 05:26:21 10° S
Cosmos 2084 4.0 05:20:56 10° WSW 05:25:02 40° NW 05:29:13 10° NNE
H-2A R/B 2.6 05:23:18 10° NNE 05:27:43 89° WNW 05:31:57 10° SSW
Cosmos 1315 Rocket 3.2 05:24:27 10° NNW 05:28:23 45° W 05:32:19 10° SSW
Cosmos 2058 Rocket 4.2 05:26:39 10° NW 05:30:13 24° W 05:33:46 10° SW
Okean 1-7 Rocket 4.5 05:26:45 10° SW 05:30:41 28° WNW 05:34:37 10° NNW
Cosmos 192 4.4 05:26:57 10° NNW 05:31:57 82° WSW 05:36:53 10° SSE
